Tracking 30685 objects as of 18-Jun-2025
HD Live streaming from Space Station
objects crossing your sky now

GORIZONT 30

Track GORIZONT 30 now!
GORIZONT 30 is classified as:


NORAD ID: 23108
Int'l Code: 1994-030A
Perigee: 35,781.6 km
Apogee: 35,812.2 km
Inclination: 14.2 °
Period: 1,436.3 minutes
Semi major axis: 42167 km
RCS: 12.5892 m2 (large)
Launch date: May 20, 1994
Source: Commonwealth of Independent States (former USSR) (CIS)
Launch site: TYURATAM MISSILE AND SPACE COMPLEX (TTMTR)
Your satellite tracking list
Your tracking list is empty




NASA's NSSDC Master Catalog

Two Line Element Set (TLE):
1 23108U 94030A   25167.78717295 -.00000146  00000-0  00000-0 0  9999
2 23108  14.2097 350.9106 0003631 258.0518 283.7425  1.00260646113792
Source of the keplerian elements: AFSPC